Sioux City, IA

10:10 PM CDT on April 24, 2017 (GMT -0500)
Sioux Gateway

Weather History for KSUX - April, 2013

Change the Weather History Date:

Tuesday, April 9, 2013

  Actual Average Record
Temperature  
Mean Temperature 40 °F 47 °F  
Max Temperature 47 °F 60 °F 87 °F (1977)
Min Temperature 32 °F 34 °F 16 °F (1928)
Degree Days  
Heating Degree Days 25 18  
Month to date heating degree days 186 180  
Since 1 July heating degree days 6382 6358  
Cooling Degree Days 0 0  
Month to date cooling degree days 0 0  
Year to date cooling degree days 0 0  
Moisture  
Dew Point 34 °F    
Average Humidity 91    
Maximum Humidity 96    
Minimum Humidity 85    
Precipitation  
Precipitation 2.33 in 0.09 in 2.33 in (2013)
Month to date precipitation 2.36 0.79  
Year to date precipitation 5.56 4.08  
Snow  
Snow 1.50 in 0.10 in 2.90 in (1913)
Month to date snowfall 1.5 0.9  
Since 1 July snowfall 34.0 33.9  
Snow Depth 0.00 in    
Sea Level Pressure  
Sea Level Pressure 29.90 in    
Wind  
Wind Speed 19 mph (NNE)    
Max Wind Speed 30 mph    
Max Gust Speed 40 mph    
Visibility 6 miles    
Events Rain , Thunderstorm    
T = Trace of Precipitation, MM = Missing Value Source: NWS Daily Summary

Daily Weather History Graph

Daily Weather History Graph

Search for Another Location

Airport or City:

Trip Planner

Search our weather history database for the weather conditions in past years. The results will help you decide how hot, cold, wet, or windy it might be!

Date:

Astronomy

Apr. 09, 2013 Rise Set
Actual Time 6:53 AM CDT 8:00 PM CDT
Civil Twilight 6:25 AM CDT 8:29 PM CDT
Nautical Twilight 5:50 AM CDT 9:04 PM CDT
Astronomical Twilight 5:14 AM CDT 9:40 PM CDT
Moon 6:17 AM CDT (4/9) 7:37 PM CDT (4/9)
Length of Visible Light 14h 04m
Length of Day
13h 06m
Waning Crescent, 1% of the Moon is Illuminated
Apr 9
Waning Crescent
Apr 10
New
Apr 18
First Quarter
Apr 25
Full
May 2
Last Quarter

Hourly Weather History & Observations

Time (CDT) Temp. Windchill Dew Point Humidity Pressure Visibility Wind Dir Wind Speed Gust Speed Precip Events Conditions
12:18 AM 48.2 °F - 44.6 °F 87% 29.78 in 6.0 mi NE 23.0 mph 31.1 mph N/A   Overcast
12:29 AM 46.4 °F 38.1 °F 44.6 °F 93% 29.76 in 6.0 mi ENE 24.2 mph 33.4 mph 0.00 in Rain , Thunderstorm Light Rain
12:44 AM 46.4 °F 38.1 °F 44.6 °F 93% 29.75 in 5.0 mi ENE 24.2 mph 36.8 mph 0.00 in   Overcast
12:52 AM 46.9 °F - 44.1 °F 90% 29.76 in 5.0 mi NE 19.6 mph 33.4 mph 0.00 in   Overcast
1:52 AM 46.0 °F 39.9 °F 43.0 °F 89% 29.78 in 4.0 mi ENE 13.8 mph 28.8 mph 0.05 in Rain , Thunderstorm Light Rain
2:09 AM 46.4 °F 39.0 °F 42.8 °F 87% 29.76 in 5.0 mi ENE 19.6 mph 27.6 mph 0.04 in Rain Light Rain
2:52 AM 45.0 °F 37.4 °F 42.1 °F 90% 29.77 in 6.0 mi ENE 18.4 mph 32.2 mph 0.04 in Rain Light Rain
3:43 AM 44.6 °F 35.9 °F 41.0 °F 87% 29.73 in 9.0 mi ENE 23.0 mph 33.4 mph 0.01 in   Overcast
3:52 AM 44.1 °F 34.6 °F 41.0 °F 89% 29.73 in 10.0 mi ENE 26.5 mph 33.4 mph 0.01 in   Overcast
4:35 AM 42.8 °F 32.7 °F 39.2 °F 87% 29.68 in 6.0 mi NE 27.6 mph 39.1 mph 0.04 in Rain , Thunderstorm Light Rain
4:52 AM 43.0 °F 33.8 °F 39.9 °F 89% 29.70 in 6.0 mi ENE 23.0 mph 32.2 mph 0.09 in Rain , Thunderstorm Light Rain
5:34 AM 42.8 °F 33.5 °F 39.2 °F 87% 29.66 in 6.0 mi ENE 23.0 mph 35.7 mph 0.23 in Rain , Thunderstorm Rain
5:52 AM 42.1 °F 32.6 °F 39.9 °F 92% 29.82 in 4.0 mi West 23.0 mph 35.7 mph 0.31 in Rain , Thunderstorm Thunderstorms and Rain
5:59 AM 42.8 °F 35.4 °F 39.2 °F 87% 29.78 in 1.8 mi NNE 15.0 mph 32.2 mph 0.11 in Rain , Thunderstorm Heavy Thunderstorms and Rain
6:07 AM 42.8 °F 36.6 °F 39.2 °F 87% 29.85 in 2.0 mi West 11.5 mph 21.9 mph 0.31 in Rain , Thunderstorm Heavy Thunderstorms and Rain
6:20 AM 42.8 °F 37.0 °F 39.2 °F 87% 29.79 in 3.0 mi NNE 10.4 mph 25.3 mph 0.41 in Rain , Thunderstorm Heavy Rain
6:32 AM 42.8 °F 34.3 °F 39.2 °F 87% 29.74 in 8.0 mi ENE 19.6 mph - 0.46 in Rain Rain
6:52 AM 42.1 °F 34.2 °F 37.9 °F 85% 29.75 in 10.0 mi North 16.1 mph 29.9 mph 0.47 in Rain Light Rain
6:59 AM 42.8 °F 37.5 °F 37.4 °F 81% 29.82 in 10.0 mi NNW 9.2 mph 25.3 mph 0.00 in Rain Light Rain
7:52 AM 41.0 °F 31.1 °F 37.0 °F 86% 29.84 in 10.0 mi North 23.0 mph 26.5 mph 0.00 in   Overcast
8:48 AM 39.2 °F 28.3 °F 35.6 °F 87% 29.83 in 10.0 mi NNE 25.3 mph 38.0 mph N/A   Overcast
8:52 AM 39.9 °F 30.5 °F 36.0 °F 86% 29.85 in 10.0 mi NNE 19.6 mph 38.0 mph N/A   Overcast
9:52 AM 39.0 °F 29.6 °F 35.1 °F 86% 29.88 in 10.0 mi North 18.4 mph 29.9 mph N/A   Overcast
10:52 AM 37.9 °F 28.9 °F 35.1 °F 89% 29.92 in 7.0 mi NNE 16.1 mph 27.6 mph 0.00 in Rain Light Rain
11:52 AM 37.0 °F 26.7 °F 35.1 °F 93% 29.95 in 3.0 mi NNE 19.6 mph 27.6 mph 0.00 in Rain Light Rain
12:52 PM 37.0 °F 26.2 °F 34.0 °F 89% 29.95 in 5.0 mi North 21.9 mph 32.2 mph 0.00 in Rain Light Rain
12:59 PM 37.4 °F 27.2 °F 33.8 °F 87% 29.94 in 4.0 mi NNE 19.6 mph 32.2 mph 0.00 in Rain Light Rain
1:52 PM 36.0 °F 25.0 °F 33.1 °F 89% 29.99 in 4.0 mi NNE 20.7 mph 27.6 mph 0.00 in Rain Light Rain
2:04 PM 35.6 °F 24.8 °F 33.8 °F 93% 29.97 in 2.0 mi North 19.6 mph 26.5 mph 0.00 in Rain Light Rain
2:52 PM 34.0 °F 21.3 °F 32.0 °F 92% 29.95 in 2.0 mi North 25.3 mph 32.2 mph 0.00 in Rain Light Rain
3:12 PM 33.8 °F 21.9 °F 32.0 °F 93% 29.93 in 4.0 mi NNE 21.9 mph 29.9 mph 0.00 in Rain Light Rain
3:19 PM 33.8 °F 21.9 °F 30.2 °F 87% 29.94 in 2.0 mi NNE 21.9 mph 32.2 mph 0.00 in Rain Light Rain
3:52 PM 33.1 °F 21.2 °F 30.0 °F 89% 29.92 in 2.0 mi NE 20.7 mph 33.4 mph 0.00 in Rain Light Rain
3:59 PM 33.8 °F 21.0 °F 30.2 °F 87% 29.85 in 7.0 mi NNE 25.3 mph 33.4 mph 0.00 in Rain Light Rain
4:10 PM 33.8 °F 22.5 °F 30.2 °F 87% 30.07 in 2.0 mi West 19.6 mph 28.8 mph 0.00 in Rain , Thunderstorm Light Rain
4:31 PM 32.0 °F 18.6 °F 30.2 °F 93% 29.92 in 2.0 mi NNE 25.3 mph 33.4 mph 0.02 in Rain , Thunderstorm Light Freezing Rain
4:35 PM 32.0 °F 19.2 °F 30.2 °F 93% 29.91 in 2.0 mi NE 23.0 mph 33.4 mph 0.03 in Rain , Thunderstorm Light Freezing Rain
4:39 PM 32.0 °F 19.2 °F 30.2 °F 93% 29.90 in 5.0 mi NE 23.0 mph 33.4 mph 0.03 in Rain , Thunderstorm Light Freezing Rain
4:50 PM 33.8 °F 22.2 °F 30.2 °F 87% 29.89 in 10.0 mi NNE 20.7 mph 27.6 mph 0.04 in Rain Light Freezing Rain
4:52 PM 33.1 °F 21.2 °F 30.0 °F 89% 29.92 in 10.0 mi NNE 20.7 mph 27.6 mph 0.04 in Rain Light Freezing Rain
4:59 PM 33.8 °F 21.9 °F 30.2 °F 87% 29.85 in 10.0 mi NNE 21.9 mph 28.8 mph 0.00 in Thunderstorm Overcast
5:20 PM 32.0 °F 20.5 °F 30.2 °F 93% 29.94 in 2.5 mi North 18.4 mph 28.8 mph 0.00 in Rain , Thunderstorm Light Freezing Rain
5:25 PM 32.0 °F 19.5 °F 30.2 °F 93% 30.03 in 1.5 mi West 21.9 mph 29.9 mph 0.15 in Rain , Thunderstorm Light Freezing Rain
5:43 PM 33.8 °F 24.3 °F 30.2 °F 87% 29.93 in 2.0 mi NNE 13.8 mph 23.0 mph 0.31 in Rain , Thunderstorm Light Freezing Rain
5:45 PM 33.8 °F 25.8 °F 30.2 °F 87% 29.96 in 2.5 mi North 10.4 mph 21.9 mph 0.31 in Rain , Thunderstorm Light Freezing Rain
5:52 PM 33.1 °F 24.9 °F 30.9 °F 92% 30.03 in 2.0 mi NW 10.4 mph - 0.32 in Rain , Thunderstorm Light Freezing Rain
6:52 PM 32.0 °F 20.8 °F 30.0 °F 92% 30.01 in 10.0 mi North 17.3 mph 27.6 mph 0.06 in Rain Light Freezing Rain
6:59 PM 32.0 °F 20.5 °F 30.2 °F 93% 29.96 in 5.0 mi NNW 18.4 mph 26.5 mph 0.00 in   Overcast
7:05 PM 32.0 °F 18.6 °F 30.2 °F 93% 30.07 in 5.0 mi West 25.3 mph 31.1 mph 0.01 in Rain , Thunderstorm Light Freezing Rain
7:10 PM 32.0 °F 19.5 °F 30.2 °F 93% 30.00 in 5.0 mi North 21.9 mph 32.2 mph 0.02 in Rain , Thunderstorm Light Freezing Rain
7:22 PM 32.0 °F 20.1 °F 30.2 °F 93% 29.97 in 5.0 mi North 19.6 mph 34.5 mph 0.07 in Rain , Thunderstorm Light Freezing Rain
7:28 PM 32.0 °F 20.1 °F 30.2 °F 93% 30.00 in 5.0 mi North 19.6 mph 29.9 mph 0.18 in Rain , Thunderstorm Light Freezing Rain
7:48 PM 32.0 °F 19.8 °F 30.2 °F 93% 29.97 in 5.0 mi North 20.7 mph 28.8 mph 0.49 in Rain , Thunderstorm Light Freezing Rain
7:49 PM 32.0 °F 19.8 °F 30.2 °F 93% 29.97 in 5.0 mi North 20.7 mph 28.8 mph 0.49 in Rain , Thunderstorm Light Freezing Rain
7:52 PM 33.1 °F 21.9 °F 30.0 °F 89% 30.01 in 5.0 mi North 18.4 mph - 0.50 in Rain , Thunderstorm Light Freezing Rain
8:06 PM 32.0 °F 18.6 °F 30.2 °F 93% 29.98 in 4.0 mi North 25.3 mph 31.1 mph 0.03 in Rain Light Freezing Rain
8:16 PM 32.0 °F 19.8 °F 30.2 °F 93% 29.99 in 7.0 mi North 20.7 mph 26.5 mph 0.08 in Rain , Thunderstorm Light Freezing Rain
8:23 PM 32.0 °F 20.5 °F 30.2 °F 93% 30.00 in 7.0 mi NNE 18.4 mph 26.5 mph 0.08 in Rain , Thunderstorm Light Freezing Rain
8:31 PM 32.0 °F 20.1 °F 30.2 °F 93% 30.00 in 4.0 mi North 19.6 mph 26.5 mph 0.17 in Rain , Thunderstorm Light Freezing Rain
8:40 PM 32.0 °F 20.8 °F 30.2 °F 93% 29.97 in 4.0 mi NNE 17.3 mph 32.2 mph 0.20 in Rain , Thunderstorm Light Freezing Rain
8:52 PM 32.0 °F 19.8 °F 28.9 °F 88% 29.95 in 5.0 mi NE 20.7 mph 32.2 mph 0.23 in Rain , Thunderstorm Light Freezing Rain
8:58 PM 32.0 °F 19.8 °F 30.2 °F 93% 29.93 in 5.0 mi NE 20.7 mph 32.2 mph 0.00 in Rain , Thunderstorm Light Freezing Rain
9:20 PM 33.8 °F 24.8 °F 30.2 °F 87% 30.03 in 6.0 mi NNE 12.7 mph 21.9 mph 0.05 in Rain Light Freezing Rain
9:27 PM 33.8 °F 22.8 °F 30.2 °F 87% 29.98 in 6.0 mi NNE 18.4 mph 27.6 mph 0.06 in Rain Light Freezing Rain
9:52 PM 33.1 °F 23.0 °F 30.9 °F 92% 30.09 in 6.0 mi NNW 15.0 mph - 0.12 in Rain Rain
10:49 PM 33.8 °F 24.3 °F 30.2 °F 87% 30.03 in 10.0 mi NW 13.8 mph - N/A   Overcast
10:52 PM 33.1 °F 23.9 °F 30.9 °F 92% 30.05 in 10.0 mi NNW 12.7 mph - 0.09 in   Overcast
10:59 PM 33.8 °F 25.3 °F 30.2 °F 87% 30.02 in 10.0 mi NNW 11.5 mph - N/A   Overcast
11:52 PM 33.1 °F 22.6 °F 30.9 °F 92% 29.99 in 10.0 mi North 16.1 mph - N/A   Overcast